Regional Weather Roundup
Issued by NWS

Home | Current Version | Previous Version | Graphics & Text | Print | Product List | Glossary On
Versions: 1 2 3 4 5 6 7 8 9 10 11 12 13 14 15 16 17 18 19 20 21 22 23 24 25 26 27 28 29 30 31 32 33 34 35 36 37 38 39 40 41 42 43 44 45 46 47 48 49 50
000
ASUS43 KTOP 050559
RWRKS

WEATHER ROUNDUP FOR KANSAS
NATIONAL WEATHER SERVICE GOODLAND KS
100 AM CDT WED AUG 05 2015

NOTE:  "FAIR" INDICATES FEW OR NO CLOUDS BELOW 12,000 FEET WITH NO
SIGNIFICANT WEATHER AND/OR OBSTRUCTIONS TO VISIBILITY.

KSZ001>006-013>018-027>032-041>047-050700-
NORTHWEST KANSAS

CITY           SKY/WX    TMP DP  RH WIND       PRES   REMARKS
GOODLAND       CLEAR     62  60  93 W7        30.05R
6HR MIN TEMP:  62; 6HR MAX TEMP:  79;

HAYS           CLOUDY    72  61  68 SE5       29.95S
HILL CITY      CLOUDY    66  64  93 N9        29.99R
6HR MIN TEMP:  66; 6HR MAX TEMP:  70;

RUSSELL        MOCLDY    72  67  84 SE12      29.93S
6HR MIN TEMP:  70; 6HR MAX TEMP:  84; 6HR PCP: TRACE;

$$

KSZ061>065-074>080-084>089-050700-
SOUTHWEST KANSAS

CITY           SKY/WX    TMP DP  RH WIND       PRES   REMARKS
DODGE CITY     CLEAR     71  69  93 SE8       29.97S
6HR MIN TEMP:  70; 6HR MAX TEMP:  86; 6HR PCP:  0.08;

ELKHART          N/A     74  64  71 SE8         N/A
GARDEN CITY    CLEAR     72  65  78 E6        29.98R
6HR MIN TEMP:  70; 6HR MAX TEMP:  87;

GREAT BEND     PTCLDY    73  66  78 SE10      29.95R
LIBERAL        CLEAR     75  66  73 SE7         N/A
$$

KSZ066>073-081>083-090>101-050700-
SOUTHEAST KANSAS

CITY           SKY/WX    TMP DP  RH WIND       PRES   REMARKS
CHANUTE        CLOUDY    72  69  90 SE8       29.96S
6HR MIN TEMP:  71; 6HR MAX TEMP:  80; 6HR PCP:  0.07;

COFFEYVILLE    CLEAR     72  71  97 CALM      29.94F
6HR MIN TEMP:  72; 6HR MAX TEMP:  77;

HUTCHINSON     PTCLDY    74  69  85 SE9       29.95S
6HR MIN TEMP:  74; 6HR MAX TEMP:  84;

NEWTON         CLOUDY    72  64  78 S8        29.98S
PARSONS        CLEAR     73  71  93 E3        29.96F
6HR MIN TEMP:  72; 6HR MAX TEMP:  76; 6HR PCP: TRACE;

WICHITA INTL   MOCLDY    74  70  87 E8        29.95S
6HR MIN TEMP:  74; 6HR MAX TEMP:  81;

WICHITA JABRA  MOCLDY    73  69  87 SE8       29.95F
6HR MIN TEMP:  73; 6HR MAX TEMP:  80;

$$

KSZ007>012-019>026-033>040-048>060-102>105-050700-
NORTHEAST KANSAS

CITY           SKY/WX    TMP DP  RH WIND       PRES   REMARKS
CONCORDIA      CLOUDY    67  66  97 CALM      29.96S
6HR MIN TEMP:  66; 6HR MAX TEMP:  73; 6HR PCP:  0.08;

EMPORIA        MOCLDY    70  66  87 S8        29.96S
6HR MIN TEMP:  70; 6HR MAX TEMP:  80;

LAWRENCE       PTCLDY    70  68  93 SE6       29.97F FOG
6HR MIN TEMP:  70; 6HR MAX TEMP:  72; 6HR PCP:  0.04;

MANHATTAN      CLOUDY    72  67  84 CALM      29.95R
6HR MIN TEMP:  72; 6HR MAX TEMP:  77; 6HR PCP:  0.12;

OLATHE IND     CLOUDY    71  69  93 E5        30.00R
6HR MIN TEMP:  71; 6HR MAX TEMP:  72; 6HR PCP:  0.08;

OLATHE EXE     CLOUDY    70  68  93 E7        29.99S
6HR MIN TEMP:  70; 6HR MAX TEMP:  71; 6HR PCP:  0.06;

SALINA         CLOUDY    74  69  85 SE6       29.94S
6HR MIN TEMP:  73; 6HR MAX TEMP:  85; 6HR PCP:  0.02;

TOPEKA BILLARD PTCLDY    71  69  93 SE7       29.96S
6HR MIN TEMP:  71; 6HR MAX TEMP:  73; 6HR PCP: TRACE;

TOPEKA FORBES  PTCLDY    71  67  87 SE9       29.96S
6HR MIN TEMP:  71; 6HR MAX TEMP:  75; 6HR PCP:  0.01;

$$


USA.gov is the U.S. government's official web portal to all federal, state and local government web resources and services.